Voltar ao catálogo

STARLINK-3989

AtivoComunicaçõesVLEO
NORAD 52630·PAYLOAD·🇺🇸 United States

Lançado May 14, 2022 de Cape Canaveral Space Force Station

Loading…

Próximas Passagens (próximas 24 horas)

TLE

AtualizadoSource: CelesTrak SupGP

Época: Sep 14, 2026, 21:49 UTC

1 52630C 22052AJ  26257.90951389 -.00016755  00000+0 -53887-3 0  2579
2 52630  53.1570 125.8076 0001481  79.2315 271.3572 15.31705660    11

Acompanhe STARLINK-3989 em tempo real com AllMySat

Download on the App Store